Location: Nairn
(57.5833°N, 3.8667°W)
Time: 04:14:26
(UTC+00:00)

Explorer 7 - Pass Details

Date: 29 November 2020
Orbit: 484 x 678 km, 50.3° (Epoch: 17 January)

Event Time Altitude Azimuth Distance (km) Brightness Sun altitude
Exits shadow 06:18:50 18° 235° (SW) 1,400 8.5 -16.1°
Maximum altitude 06:20:39 24° 198° (SSW) 1,153 8.4 -15.9°
Drops below altitude 10° 06:23:54 10° 144° (SE) 1,764 10.2 -15.5°
Sets 06:26:20 0° 130° (SE) 2,620 11.6 -15.2°
